Waskish, MN

7:25 AM CDT on May 26, 2017 (GMT -0500)
Waskish Municipal

Weather History for KVWU - October, 2012

Change the Weather History Date:

Tuesday, October 23, 2012

  Actual Average (KBDE) Record (KBDE)
Temperature  
Mean Temperature 48 °F -  
Max Temperature 51 °F 52 °F 80 °F (1963)
Min Temperature 44 °F 30 °F 8 °F (1936)
Degree Days  
Heating Degree Days 18    
Moisture  
Dew Point 46 °F    
Average Humidity 94    
Maximum Humidity 100    
Minimum Humidity 71    
Precipitation  
Precipitation 0.75 in - - ()
Sea Level Pressure  
Sea Level Pressure 29.78 in    
Wind  
Wind Speed 10 mph (East)    
Max Wind Speed 16 mph    
Max Gust Speed 21 mph    
Visibility 7 miles    
Events Rain , Thunderstorm    
Averages and records for this station are not official NWS values.
T = Trace of Precipitation, MM = Missing Value Source: NWS Daily Summary

Daily Weather History Graph

Daily Weather History Graph

Search for Another Location

Airport or City:

Trip Planner

Search our weather history database for the weather conditions in past years. The results will help you decide how hot, cold, wet, or windy it might be!

Date:

Astronomy

Oct. 23, 2012 Rise Set
Actual Time 7:50 AM CDT 6:13 PM CDT
Civil Twilight 7:18 AM CDT 6:45 PM CDT
Nautical Twilight 6:42 AM CDT 7:21 PM CDT
Astronomical Twilight 6:06 AM CDT 7:57 PM CDT
Moon 3:21 PM CDT (10/23) 1:16 AM CDT (10/23)
Length of Visible Light 11h 27m
Length of Day
10h 23m
Waxing Gibbous, 67% of the Moon is Illuminated
Oct 23
Waxing Gibbous
Oct 29
Full
Nov 6
Last Quarter
Nov 13
New
Nov 20
First Quarter

Hourly Weather History & Observations

Time (CDT) Temp. Windchill Dew Point Humidity Pressure Visibility Wind Dir Wind Speed Gust Speed Precip Events Conditions
12:12 AM 46.4 °F 42.4 °F 37.4 °F 71% 29.97 in 10.0 mi ENE 8.1 mph - N/A   Overcast
12:31 AM 46.4 °F 41.9 °F 37.4 °F 71% 29.95 in 10.0 mi ENE 9.2 mph - N/A   Overcast
12:52 AM 46.4 °F 41.5 °F 39.2 °F 76% 29.96 in 10.0 mi East 10.4 mph - N/A Rain Light Rain
1:52 AM 44.6 °F 38.1 °F 41.0 °F 87% 29.89 in 10.0 mi ENE 13.8 mph - 0.01 in Rain , Thunderstorm Rain
2:52 AM 44.6 °F 41.4 °F 42.8 °F 93% 29.97 in 5.0 mi NNW 5.8 mph - 0.21 in Rain Heavy Rain
3:12 AM 44.6 °F 43.1 °F 42.8 °F 93% 29.97 in 10.0 mi NW 3.5 mph - 0.10 in Rain , Thunderstorm Rain
3:31 AM 44.6 °F 38.8 °F 42.8 °F 93% 29.94 in 3.0 mi NE 11.5 mph - 0.27 in Rain , Thunderstorm Light Thunderstorms and Rain
3:52 AM 44.6 °F 37.8 °F 42.8 °F 93% 29.91 in 10.0 mi NE 15.0 mph 18.4 mph 0.40 in Rain Rain
4:12 AM 44.6 °F 37.4 °F 42.8 °F 93% 29.89 in 10.0 mi ENE 16.1 mph - 0.09 in Rain Rain
5:12 AM 44.6 °F 38.1 °F 42.8 °F 93% 29.88 in 10.0 mi ENE 13.8 mph 17.3 mph 0.01 in Thunderstorm Unknown
5:31 AM 44.6 °F 37.8 °F 42.8 °F 93% 29.88 in 10.0 mi ENE 15.0 mph 20.7 mph 0.02 in Rain , Thunderstorm Light Thunderstorms and Rain
5:52 AM 44.6 °F 38.4 °F 42.8 °F 93% 29.88 in 10.0 mi ENE 12.7 mph 17.3 mph N/A   Drizzle
6:31 AM 44.6 °F 37.8 °F 42.8 °F 93% 29.86 in 10.0 mi ENE 15.0 mph 19.6 mph N/A   Overcast
6:52 AM 44.6 °F 38.4 °F 42.8 °F 93% 29.86 in 10.0 mi ENE 12.7 mph 19.6 mph N/A   Overcast
7:31 AM 44.6 °F 39.2 °F 42.8 °F 93% 29.86 in 10.0 mi East 10.4 mph 17.3 mph N/A   Overcast
7:52 AM 44.6 °F 38.1 °F 42.8 °F 93% 29.85 in 5.0 mi East 13.8 mph 19.6 mph N/A   Overcast
8:12 AM 44.6 °F 37.8 °F 42.8 °F 93% 29.85 in 3.0 mi East 15.0 mph 19.6 mph N/A   Overcast
8:32 AM 44.6 °F 37.8 °F 42.8 °F 93% 29.84 in 2.0 mi ENE 15.0 mph 19.6 mph N/A   Overcast
9:11 AM 44.6 °F 38.8 °F 42.8 °F 93% 29.84 in 4.0 mi East 11.5 mph 17.3 mph N/A   Overcast
9:52 AM 44.6 °F 38.4 °F 42.8 °F 93% 29.83 in 3.0 mi East 12.7 mph 17.3 mph N/A   Overcast
10:11 AM 44.6 °F 38.1 °F 42.8 °F 93% 29.82 in 2.5 mi East 13.8 mph 18.4 mph N/A   Overcast
10:52 AM 44.6 °F 38.1 °F 44.6 °F 100% 29.80 in 4.0 mi East 13.8 mph 20.7 mph N/A   Overcast
11:12 AM 44.6 °F 37.8 °F 44.6 °F 100% 29.80 in 7.0 mi East 15.0 mph - N/A   Overcast
11:32 AM 46.4 °F 40.4 °F 44.6 °F 93% 29.79 in 10.0 mi East 13.8 mph 18.4 mph N/A   Overcast
11:52 AM 46.4 °F 41.1 °F 46.4 °F 100% 29.78 in 10.0 mi East 11.5 mph 18.4 mph N/A   Overcast
12:12 PM 46.4 °F 40.7 °F 46.4 °F 100% 29.78 in 7.0 mi East 12.7 mph 16.1 mph N/A   Overcast
12:32 PM 46.4 °F 40.7 °F 46.4 °F 100% 29.77 in 7.0 mi East 12.7 mph - N/A   Overcast
12:52 PM 48.2 °F - 46.4 °F 93% 29.75 in 7.0 mi East 11.5 mph - N/A Thunderstorm Overcast
1:12 PM 48.2 °F - 46.4 °F 93% 29.75 in 5.0 mi East 10.4 mph 20.7 mph N/A Thunderstorm Overcast
1:31 PM 48.2 °F - 46.4 °F 93% 29.75 in 4.0 mi East 11.5 mph - N/A   Overcast
1:52 PM 48.2 °F - 46.4 °F 93% 29.75 in 5.0 mi East 11.5 mph 16.1 mph N/A   Overcast
2:11 PM 48.2 °F - 46.4 °F 93% 29.74 in 3.0 mi East 9.2 mph - N/A Thunderstorm Overcast
2:32 PM 48.2 °F - 48.2 °F 100% 29.73 in 4.0 mi ESE 11.5 mph 17.3 mph N/A   Overcast
2:52 PM 48.2 °F - 48.2 °F 100% 29.72 in 4.0 mi East 9.2 mph - N/A   Overcast
3:11 PM 48.2 °F - 48.2 °F 100% 29.72 in 2.0 mi ESE 10.4 mph - N/A   Overcast
3:32 PM 48.2 °F - 48.2 °F 100% 29.71 in 2.5 mi ESE 6.9 mph 19.6 mph N/A   Overcast
4:32 PM 48.2 °F - 48.2 °F 100% 29.68 in 2.0 mi East 11.5 mph 16.1 mph N/A   Light Drizzle
4:52 PM 48.2 °F - 48.2 °F 100% 29.68 in 2.5 mi ESE 11.5 mph 18.4 mph N/A Rain Light Rain
5:11 PM 48.2 °F - 48.2 °F 100% 29.69 in 4.0 mi ESE 8.1 mph 16.1 mph N/A Rain Light Rain
5:32 PM 48.2 °F - 48.2 °F 100% 29.69 in 10.0 mi ESE 9.2 mph - N/A   Light Drizzle
5:52 PM 48.2 °F - 48.2 °F 100% 29.69 in 10.0 mi ESE 6.9 mph - N/A   Overcast
6:32 PM 48.2 °F - 48.2 °F 100% 29.68 in 7.0 mi ESE 6.9 mph - 0.01 in Rain Light Rain
6:52 PM 48.2 °F - 48.2 °F 100% 29.68 in 10.0 mi SE 8.1 mph - 0.01 in   Overcast
7:11 PM 50.0 °F - 48.2 °F 94% 29.69 in 10.0 mi SE 6.9 mph - N/A   Overcast
7:32 PM 50.0 °F - 48.2 °F 94% 29.68 in 10.0 mi ESE 10.4 mph - N/A Thunderstorm Overcast
7:52 PM 50.0 °F - 48.2 °F 94% 29.68 in 10.0 mi ESE 6.9 mph - N/A   Overcast
8:11 PM 50.0 °F - 48.2 °F 94% 29.68 in 7.0 mi SE 3.5 mph - N/A   Overcast
8:32 PM 50.0 °F - 48.2 °F 94% 29.69 in 5.0 mi SE 5.8 mph - N/A   Overcast
8:52 PM 50.0 °F - 48.2 °F 94% 29.69 in 5.0 mi SSE 3.5 mph - N/A   Overcast
9:11 PM 50.0 °F - 48.2 °F 94% 29.68 in 5.0 mi SSE 8.1 mph - N/A Rain Rain
9:32 PM 50.0 °F - 48.2 °F 94% 29.69 in 3.0 mi South 5.8 mph - N/A Thunderstorm Unknown
9:52 PM 50.0 °F - 48.2 °F 94% 29.70 in 3.0 mi South 6.9 mph - N/A   Drizzle
10:12 PM 50.0 °F - 48.2 °F 94% 29.70 in 4.0 mi South 4.6 mph - 0.01 in   Light Drizzle
10:51 PM 50.0 °F - 50.0 °F 100% 29.70 in 5.0 mi South 5.8 mph - 0.01 in Rain Light Rain
11:12 PM 50.0 °F - 50.0 °F 100% 29.71 in 5.0 mi South 6.9 mph - N/A   Overcast
11:32 PM 51.8 °F - 50.0 °F 94% 29.71 in 10.0 mi South 6.9 mph - N/A   Overcast
11:51 PM 51.8 °F - 50.0 °F 94% 29.71 in 10.0 mi South 5.8 mph - N/A   Overcast